Weather in Konstantinovsk

Russia / Rostov Oblast     47°34′38″N   41°05′48″E
temp.,
°C
wind,
m/s
gust,
m/s
humid.,
%
clouds,
%
prec.,
mm/h
press.,
hPa
HPBL,
m
17 august, wed
wed1700:00+27ese23308 0.0 100829
03:00+24sw22425 0.1 100824
06:00+23sw34447 0.0 100898
09:00+31wsw56300 0.0 1008761
12:00+35wsw552950 0.0 10081639
15:00+36wsw55265 0.0 10072262
18:00+34w44285 0.1 10071104
21:00+28w494599 0.1 1008202
18 august, thu
thu1800:00+25wnw37556 0.0 1007142
03:00+23nw116094 0.0 100817
06:00+23sw236199 0.0 100864
09:00+27wsw345199 0.1 1009368
12:00+33sw34335 0.6 10081628
15:00+35ssw3528100 0.7 10062956
18:00+27e456099 2.7 1008234
21:00+23ssw3578100 3.6 1008118
19 august, fri
fri1900:00+21sse4984100 1.8 1008196
03:00+20sse2585100 2.6 1008118
06:00+21se3483100 0.4 1009120
09:00+26sse236392 0.4 1010545
12:00+31ese224146 0.0 10091610
15:00+34ene4333100 0.0 10092699
18:00+32ese563698 0.2 10081480
21:00+25ese4852100 0.5 1010143
20 august, sat
sat2000:00+25ese81539100 0.4 1012745
03:00+23ese61357100 0.6 1013832
06:00+24e81649100 0.3 1012900
09:00+28ese91336100 0.4 10141399
12:00+32ese91427100 0.0 10142366
15:00+34ese101420100 0.0 10123303
18:00+31ese111424100 0.0 10131753
21:00+27ese91525100 0.0 10151062
21 august, sun
sun2100:00+25e81525100 0.0 1015835
03:00+22e61331100 0.0 1016622
06:00+21e7153293 0.0 1015580
09:00+27e9142297 0.0 10141136
12:00+32ese111417100 0.0 10132169
15:00+33ese101314100 0.0 10122586
18:00+31ese81217100 0.0 10122365
21:00+27ese81424100 0.0 1013810